| time (UTC) | temp C | wind direction | speed KPH | gust KPH | rain 1hr cm | rain 24hr cm | rain mn cm | humidity % | barometer mb |
| 20260504050542 | 7 | 306 | 0.0 | 6.4 | 0.00 | 0.00 | 0.00 | 69 | 1010.3 |
| 20260504045540 | 6 | 276 | 0.0 | 4.8 | 0.00 | 0.00 | 0.00 | 71 | 1010.3 |
| 20260504045039 | 6 | 86 | 0.0 | 4.8 | 0.00 | 0.00 | 0.00 | 73 | 1010.3 |
| 20260504044540 | 6 | 102 | 0.0 | 4.8 | 0.00 | 0.00 | 0.00 | 73 | 1010.3 |
| 20260504044037 | 6 | 84 | 0.0 | 1.6 | 0.00 | 0.00 | 0.00 | 72 | 1010.5 |
| 20260504043536 | 7 | 84 | 0.0 | 3.2 | 0.00 | 0.00 | 0.00 | 70 | 1010.6 |
| 20260504043036 | 7 | 82 | 0.0 | 3.2 | 0.00 | 0.00 | 0.00 | 68 | 1010.8 |
| 20260504042534 | 7 | 316 | 0.0 | 1.6 | 0.00 | 0.00 | 0.00 | 67 | 1011.0 |
| 20260504042032 | 7 | 316 | 0.0 | 4.8 | 0.00 | 0.00 | 0.00 | 67 | 1011.0 |
| 20260504041532 | 7 | 316 | 0.0 | 4.8 | 0.00 | 0.00 | 0.00 | 67 | 1011.0 |
| 20260504041031 | 7 | 316 | 0.0 | 3.2 | 0.00 | 0.00 | 0.00 | 67 | 1011.0 |
| 20260504040533 | 7 | 316 | 0.0 | 6.4 | 0.00 | 0.00 | 0.00 | 66 | 1011.0 |
| 20260504040048 | 7 | 303 | 1.6 | 6.4 | 0.00 | 0.00 | 0.00 | 66 | 1011.0 |
| 20260504035530 | 7 | 290 | 1.6 | 8.0 | 0.00 | 0.00 | 0.00 | 65 | 1011.0 |
| 20260504035029 | 7 | 304 | 0.0 | 11.3 | 0.00 | 0.00 | 0.00 | 65 | 1011.1 |
| 20260504034530 | 7 | 253 | 4.8 | 14.5 | 0.00 | 0.00 | 0.00 | 63 | 1011.1 |
| 20260504034030 | 7 | 284 | 8.0 | 17.7 | 0.00 | 0.00 | 0.00 | 63 | 1011.0 |
| 20260504033529 | 8 | 340 | 8.0 | 25.7 | 0.00 | 0.00 | 0.00 | 62 | 1011.1 |
| 20260504033028 | 8 | 294 | 16.1 | 25.7 | 0.00 | 0.00 | 0.00 | 61 | 1011.1 |
| 20260504032532 | 8 | 269 | 9.7 | 20.9 | 0.00 | 0.00 | 0.00 | 60 | 1011.1 |
| 20260504032032 | 8 | 310 | 8.0 | 20.9 | 0.00 | 0.00 | 0.00 | 60 | 1011.1 |
| 20260504031528 | 8 | 272 | 11.3 | 22.5 | 0.00 | 0.00 | 0.00 | 60 | 1011.0 |
| 20260504031027 | 8 | 276 | 11.3 | 22.5 | 0.00 | 0.00 | 0.00 | 59 | 1011.0 |
| 20260504030528 | 8 | 311 | 9.7 | 17.7 | 0.00 | 0.00 | 0.00 | 59 | 1011.0 |
| 20260504030027 | 7 | 286 | 6.4 | 11.3 | 0.00 | 0.00 | 0.00 | 59 | 1011.0 |
| 20260504025528 | 7 | 253 | 4.8 | 11.3 | 0.00 | 0.00 | 0.00 | 59 | 1011.0 |
| 20260504025027 | 7 | 260 | 4.8 | 11.3 | 0.00 | 0.00 | 0.00 | 60 | 1010.9 |
| 20260504024527 | 7 | 287 | 3.2 | 9.7 | 0.00 | 0.00 | 0.00 | 60 | 1010.9 |
| 20260504024030 | 7 | 269 | 1.6 | 6.4 | 0.00 | 0.00 | 0.00 | 61 | 1010.9 |
| 20260504023526 | 7 | 254 | 0.0 | 4.8 | 0.00 | 0.00 | 0.00 | 62 | 1010.9 |
| 20260504023025 | 7 | 290 | 1.6 | 6.4 | 0.00 | 0.00 | 0.00 | 63 | 1010.8 |
| 20260504022525 | 6 | 276 | 1.6 | 6.4 | 0.00 | 0.00 | 0.00 | 64 | 1010.8 |
| 20260504022025 | 6 | 256 | 0.0 | 1.6 | 0.00 | 0.00 | 0.00 | 65 | 1010.8 |
| 20260504021525 | 6 | 256 | 0.0 | 1.6 | 0.00 | 0.00 | 0.00 | 65 | 1010.8 |
| 20260504021026 | 6 | 257 | 0.0 | 3.2 | 0.00 | 0.00 | 0.00 | 66 | 1010.9 |
| 20260504020524 | 6 | 256 | 0.0 | 1.6 | 0.00 | 0.00 | 0.00 | 66 | 1010.8 |
| 20260504020024 | 6 | 255 | 0.0 | 0.0 | 0.00 | 0.00 | 0.00 | 66 | 1010.8 |
| 20260504015524 | 6 | 255 | 0.0 | 3.2 | 0.00 | 0.00 | 0.00 | 66 | 1010.8 |
| 20260504015024 | 6 | 250 | 0.0 | 4.8 | 0.00 | 0.00 | 0.00 | 66 | 1010.8 |
| 20260504014526 | 6 | 294 | 0.0 | 4.8 | 0.00 | 0.00 | 0.00 | 67 | 1010.8 |
| 20260504014023 | 6 | 12 | 0.0 | 3.2 | 0.00 | 0.00 | 0.00 | 67 | 1010.9 |
| 20260504013523 | 6 | 297 | 0.0 | 0.0 | 0.00 | 0.00 | 0.00 | 67 | 1010.9 |
| 20260504013022 | 6 | 297 | 0.0 | 0.0 | 0.00 | 0.00 | 0.00 | 66 | 1010.9 |
| 20260504012525 | 6 | 297 | 0.0 | 0.0 | 0.00 | 0.00 | 0.00 | 65 | 1010.9 |
| 20260504012022 | 6 | 297 | 0.0 | 1.6 | 0.00 | 0.00 | 0.00 | 64 | 1010.9 |
| 20260504011522 | 6 | 280 | 0.0 | 1.6 | 0.00 | 0.00 | 0.00 | 65 | 1010.9 |
| 20260504011021 | 6 | 291 | 0.0 | 1.6 | 0.00 | 0.00 | 0.00 | 66 | 1010.8 |
| 20260504010521 | 6 | 292 | 0.0 | 1.6 | 0.00 | 0.00 | 0.00 | 66 | 1010.7 |
| 20260504010005 | 6 | 292 | 0.0 | 1.6 | 0.00 | 0.00 | 0.00 | 66 | 1010.7 |
| 20260504005516 | 6 | 292 | 0.0 | 0.0 | 0.00 | 0.00 | 0.00 | 65 | 1010.6 |
| 20260504005015 | 6 | 292 | 0.0 | 1.6 | 0.00 | 0.00 | 0.00 | 64 | 1010.5 |
| 20260504004538 | 6 | 290 | 0.0 | 3.2 | 0.00 | 0.00 | 0.00 | 63 | 1010.6 |
| 20260504004011 | 7 | 290 | 0.0 | 3.2 | 0.00 | 0.00 | 0.00 | 61 | 1010.5 |
| 20260504003522 | 7 | 292 | 0.0 | 3.2 | 0.00 | 0.00 | 0.00 | 60 | 1010.5 |
| 20260504003010 | 7 | 284 | 0.0 | 3.2 | 0.00 | 0.00 | 0.00 | 60 | 1010.5 |
| 20260504002519 | 7 | 309 | 0.0 | 4.8 | 0.00 | 0.00 | 0.00 | 59 | 1010.4 |
| 20260504002005 | 7 | 297 | 0.0 | 6.4 | 0.00 | 0.00 | 0.00 | 59 | 1010.4 |
| 20260504001517 | 7 | 303 | 3.2 | 11.3 | 0.00 | 0.00 | 0.00 | 58 | 1010.4 |
| 20260504001017 | 8 | 297 | 4.8 | 12.9 | 0.00 | 0.00 | 0.00 | 58 | 1010.3 |
| 20260504000510 | 8 | 295 | 4.8 | 12.9 | 0.00 | 0.00 | 0.00 | 58 | 1010.3 |
| 20260504000016 | 8 | 295 | 6.4 | 14.5 | 0.00 | 0.00 | 0.00 | 57 | 1010.3 |
| 20260503235528 | 8 | 294 | 6.4 | 16.1 | 0.00 | 0.00 | 0.00 | 57 | 1010.2 |
| 20260503235016 | 8 | 290 | 8.0 | 16.1 | 0.00 | 0.00 | 0.00 | 57 | 1010.3 |
| 20260503234507 | 8 | 302 | 4.8 | 19.3 | 0.00 | 0.00 | 0.00 | 56 | 1010.2 |
| 20260503234010 | 8 | 290 | 11.3 | 24.1 | 0.00 | 0.00 | 0.00 | 55 | 1010.2 |
| 20260503233521 | 8 | 290 | 9.7 | 24.1 | 0.00 | 0.00 | 0.00 | 55 | 1010.2 |
| 20260503233008 | 8 | 317 | 6.4 | 22.5 | 0.00 | 0.00 | 0.00 | 55 | 1010.2 |
| 20260503232518 | 8 | 288 | 11.3 | 35.4 | 0.00 | 0.00 | 0.00 | 54 | 1010.1 |
| 20260503232005 | 8 | 283 | 11.3 | 35.4 | 0.00 | 0.00 | 0.00 | 54 | 1010.2 |
| 20260503231514 | 8 | 312 | 12.9 | 30.6 | 0.00 | 0.00 | 0.00 | 52 | 1010.1 |
| 20260503231016 | 9 | 290 | 19.3 | 30.6 | 0.00 | 0.00 | 0.00 | 51 | 1010.0 |
| 20260503230527 | 9 | 302 | 9.7 | 22.5 | 0.00 | 0.00 | 0.00 | 50 | 1009.9 |
| 20260503230012 | 9 | 290 | 11.3 | 22.5 | 0.00 | 0.00 | 0.00 | 49 | 1009.9 |
| 20260503225525 | 8 | 297 | 12.9 | 19.3 | 0.00 | 0.00 | 0.00 | 49 | 1009.9 |
| 20260503225014 | 9 | 297 | 11.3 | 29.0 | 0.00 | 0.00 | 0.00 | 49 | 1009.9 |
| 20260503224526 | 8 | 288 | 12.9 | 29.0 | 0.00 | 0.00 | 0.00 | 48 | 1009.8 |
| 20260503224012 | 8 | 294 | 16.1 | 27.4 | 0.00 | 0.00 | 0.00 | 47 | 1009.8 |
| 20260503223528 | 9 | 312 | 14.5 | 22.5 | 0.00 | 0.00 | 0.00 | 48 | 1009.8 |
| 20260503223011 | 9 | 307 | 14.5 | 22.5 | 0.00 | 0.00 | 0.00 | 47 | 1009.8 |
| 20260503222522 | 9 | 328 | 8.0 | 17.7 | 0.00 | 0.00 | 0.00 | 47 | 1009.7 |
| 20260503222010 | 9 | 297 | 9.7 | 24.1 | 0.00 | 0.00 | 0.00 | 45 | 1009.7 |
| 20260503221523 | 9 | 290 | 11.3 | 24.1 | 0.00 | 0.00 | 0.00 | 46 | 1009.7 |
| 20260503221011 | 9 | 302 | 11.3 | 29.0 | 0.00 | 0.00 | 0.00 | 44 | 1009.7 |
| 20260503220526 | 9 | 297 | 12.9 | 29.0 | 0.00 | 0.00 | 0.00 | 45 | 1009.7 |
| 20260503220006 | 9 | 279 | 14.5 | 29.0 | 0.00 | 0.00 | 0.00 | 42 | 1009.7 |
| 20260503215520 | 10 | 296 | 14.5 | 22.5 | 0.00 | 0.00 | 0.00 | 42 | 1009.6 |
| 20260503215005 | 10 | 288 | 9.7 | 19.3 | 0.00 | 0.00 | 0.00 | 44 | 1009.5 |
| 20260503214520 | 10 | 294 | 4.8 | 20.9 | 0.00 | 0.00 | 0.00 | 43 | 1009.6 |
| 20260503214006 | 10 | 286 | 11.3 | 30.6 | 0.00 | 0.00 | 0.00 | 41 | 1009.5 |
| 20260503213518 | 10 | 276 | 12.9 | 30.6 | 0.00 | 0.00 | 0.00 | 41 | 1009.6 |
| 20260503213019 | 10 | 201 | 9.7 | 27.4 | 0.00 | 0.00 | 0.00 | 40 | 1009.6 |
| 20260503212526 | 10 | 301 | 12.9 | 24.1 | 0.00 | 0.00 | 0.00 | 41 | 1009.6 |
| 20260503212012 | 10 | 301 | 12.9 | 27.4 | 0.00 | 0.00 | 0.00 | 42 | 1009.5 |
| 20260503211506 | 9 | 295 | 14.5 | 27.4 | 0.00 | 0.00 | 0.00 | 40 | 1009.5 |
| 20260503211016 | 10 | 302 | 6.4 | 25.7 | 0.00 | 0.00 | 0.00 | 41 | 1009.6 |
| 20260503210522 | 10 | 296 | 9.7 | 25.7 | 0.00 | 0.00 | 0.00 | 39 | 1009.5 |
| 20260503210012 | 10 | 318 | 11.3 | 24.1 | 0.00 | 0.00 | 0.00 | 37 | 1009.5 |
| 20260503205522 | 10 | 297 | 14.5 | 24.1 | 0.00 | 0.00 | 0.00 | 37 | 1009.4 |
| 20260503205009 | 10 | 328 | 8.0 | 35.4 | 0.00 | 0.00 | 0.00 | 39 | 1009.4 |
| 20260503204526 | 10 | 301 | 17.7 | 35.4 | 0.00 | 0.00 | 0.00 | 38 | 1009.3 |
| 20260503204007 | 10 | 280 | 20.9 | 30.6 | 0.00 | 0.00 | 0.00 | 36 | 1009.4 |
| 20260503203520 | 10 | 296 | 12.9 | 32.2 | 0.00 | 0.00 | 0.00 | 38 | 1009.5 |
| 20260503203023 | 10 | 238 | 11.3 | 38.6 | 0.00 | 0.00 | 0.00 | 43 | 1009.7 |
| 20260503202512 | 10 | 287 | 25.7 | 38.6 | 0.00 | 0.00 | 0.00 | 39 | 1009.5 |
| 20260503202019 | 10 | 293 | 19.3 | 38.6 | 0.00 | 0.00 | 0.00 | 39 | 1009.6 |
| 20260503201511 | 10 | 294 | 27.4 | 43.5 | 0.00 | 0.00 | 0.00 | 38 | 1009.7 |
| 20260503201019 | 10 | 295 | 19.3 | 32.2 | 0.00 | 0.00 | 0.00 | 39 | 1009.9 |
| 20260503200511 | 10 | 277 | 8.0 | 29.0 | 0.00 | 0.00 | 0.00 | 39 | 1009.8 |
| 20260503200014 | 10 | 297 | 14.5 | 29.0 | 0.00 | 0.00 | 0.00 | 42 | 1009.8 |
| 20260503195526 | 10 | 291 | 4.8 | 27.4 | 0.00 | 0.00 | 0.00 | 42 | 1009.9 |
| 20260503195014 | 10 | 246 | 6.4 | 27.4 | 0.00 | 0.00 | 0.00 | 41 | 1010.1 |
| 20260503194529 | 10 | 314 | 6.4 | 29.0 | 0.00 | 0.00 | 0.00 | 41 | 1010.0 |
| 20260503194011 | 9 | 280 | 6.4 | 19.3 | 0.00 | 0.00 | 0.00 | 47 | 1010.1 |
| 20260503193526 | 9 | 231 | 4.8 | 19.3 | 0.00 | 0.00 | 0.00 | 40 | 1010.1 |
| 20260503193029 | 8 | 295 | 9.7 | 30.6 | 0.00 | 0.00 | 0.00 | 43 | 1010.1 |
| 20260503192520 | 8 | 289 | 20.9 | 30.6 | 0.00 | 0.00 | 0.00 | 42 | 1010.2 |
| 20260503192008 | 8 | 290 | 9.7 | 29.0 | 0.00 | 0.00 | 0.00 | 41 | 1010.5 |
| 20260503191520 | 8 | 319 | 8.0 | 40.2 | 0.00 | 0.00 | 0.00 | 43 | 1010.3 |
| 20260503191008 | 8 | 266 | 16.1 | 40.2 | 0.00 | 0.00 | 0.00 | 40 | 1010.5 |
| 20260503190514 | 8 | 274 | 14.5 | 37.0 | 0.00 | 0.00 | 0.00 | 43 | 1010.4 |
| 20260503190019 | 8 | 278 | 19.3 | 41.8 | 0.00 | 0.00 | 0.00 | 40 | 1010.6 |
| 20260503185511 | 9 | 280 | 25.7 | 41.8 | 0.00 | 0.00 | 0.00 | 42 | 1010.6 |
| 20260503185019 | 9 | 301 | 19.3 | 38.6 | 0.00 | 0.00 | 0.00 | 45 | 1010.4 |
| 20260503184519 | 8 | 300 | 3.2 | 33.8 | 0.00 | 0.00 | 0.00 | 47 | 1010.5 |
| 20260503184014 | 8 | 305 | 20.9 | 33.8 | 0.00 | 0.00 | 0.00 | 46 | 1010.6 |
| 20260503183509 | 8 | 326 | 14.5 | 22.5 | 0.00 | 0.00 | 0.00 | 47 | 1010.6 |
| 20260503183015 | 8 | 252 | 4.8 | 27.4 | 0.00 | 0.00 | 0.00 | 46 | 1010.7 |
| 20260503182509 | 8 | 289 | 11.3 | 27.4 | 0.00 | 0.00 | 0.00 | 51 | 1010.8 |
| 20260503182014 | 7 | 304 | 6.4 | 22.5 | 0.00 | 0.00 | 0.00 | 52 | 1010.7 |
| 20260503181525 | 7 | 287 | 9.7 | 22.5 | 0.00 | 0.00 | 0.00 | 49 | 1010.9 |
| 20260503181012 | 7 | 315 | 12.9 | 22.5 | 0.00 | 0.00 | 0.00 | 50 | 1010.9 |
| 20260503180523 | 7 | 236 | 9.7 | 25.7 | 0.00 | 0.00 | 0.00 | 49 | 1010.9 |
| 20260503180016 | 7 | 317 | 12.9 | 22.5 | 0.00 | 0.00 | 0.00 | 49 | 1011.0 |
| 20260503175518 | 7 | 314 | 11.3 | 22.5 | 0.00 | 0.00 | 0.00 | 48 | 1011.0 |
| 20260503175006 | 7 | 304 | 6.4 | 22.5 | 0.00 | 0.00 | 0.00 | 50 | 1011.2 |
| 20260503174519 | 7 | 295 | 9.7 | 24.1 | 0.00 | 0.00 | 0.00 | 50 | 1011.3 |
| 20260503174019 | 7 | 311 | 9.7 | 27.4 | 0.00 | 0.00 | 0.00 | 50 | 1011.2 |
| 20260503173527 | 7 | 300 | 12.9 | 27.4 | 0.00 | 0.00 | 0.00 | 53 | 1011.3 |
| 20260503173022 | 7 | 287 | 14.5 | 27.4 | 0.00 | 0.00 | 0.00 | 54 | 1011.3 |
| 20260503172529 | 6 | 290 | 16.1 | 29.0 | 0.00 | 0.00 | 0.00 | 55 | 1011.3 |
| 20260503172010 | 6 | 281 | 19.3 | 30.6 | 0.00 | 0.00 | 0.00 | 54 | 1011.3 |
| 20260503171524 | 6 | 295 | 16.1 | 30.6 | 0.00 | 0.00 | 0.00 | 54 | 1011.3 |
| 20260503171010 | 6 | 293 | 14.5 | 27.4 | 0.00 | 0.00 | 0.00 | 55 | 1011.4 |
| 20260503170522 | 6 | 283 | 17.7 | 27.4 | 0.00 | 0.00 | 0.00 | 53 | 1011.5 |
| 20260503150507 | 5 | 315 | 8.0 | 19.3 | 0.00 | 0.00 | 0.00 | 54 | 1011.8 |
| 20260503131014 | 3 | 270 | 11.3 | 20.9 | 0.00 | 0.00 | 0.00 | 66 | 1012.2 |
| 20260503130527 | 3 | 304 | 8.0 | 25.7 | 0.00 | 0.00 | 0.00 | 67 | 1012.2 |
| 20260503110504 | 1 | 288 | 4.8 | 8.0 | 0.00 | 0.00 | 0.00 | 83 | 1011.6 |
| 20260503100109 | 1 | 277 | 0.0 | 6.4 | 0.00 | 0.00 | 0.00 | 82 | 1011.1 |
| 20260503081547 | 1 | 297 | 1.6 | 4.8 | 0.00 | 0.03 | 0.00 | 82 | 1011.3 |
| 20260503081046 | 1 | 293 | 1.6 | 4.8 | 0.00 | 0.03 | 0.00 | 83 | 1011.3 |
| 20260503080545 | 1 | 293 | 0.0 | 4.8 | 0.00 | 0.03 | 0.00 | 83 | 1011.4 |
| 20260503072544 | 1 | 287 | 3.2 | 6.4 | 0.00 | 0.03 | 0.00 | 82 | 1011.4 |
| 20260503072041 | 1 | 298 | 0.0 | 4.8 | 0.00 | 0.03 | 0.00 | 82 | 1011.5 |
| 20260503071540 | 1 | 291 | 0.0 | 4.8 | 0.00 | 0.03 | 0.00 | 83 | 1011.5 |
| 20260503071039 | 1 | 294 | 0.0 | 3.2 | 0.00 | 0.03 | 0.00 | 83 | 1011.6 |